FW4749 Weather Reports


time (UTC)temp
C
wind
direction
speed
KPH
gust
KPH
rain 1hr
cm
rain 24hr
cm
rain mn
cm
humidity
%
barometer
mb
20260510082949 19 0 0.0 1.6 0.00 0.00 0.00 90 1009.8
20260510082443 19 0 0.0 3.2 0.00 0.00 0.00 90 1009.7
20260510081937 19 0 0.0 3.2 0.00 0.00 0.00 91 1009.6
20260510081654 19 0 0.0 0.0 0.00 0.00 0.00 91 1009.7
20260510080927 19 0 0.0 0.0 0.00 0.00 0.00 91 1009.7
20260510080638 18 0 0.0 0.0 0.00 0.00 0.00 91 1009.8
20260510075917 18 0 0.0 0.0 0.00 0.00 0.00 91 1009.6
20260510075407 18 0 0.0 0.0 0.00 0.00 0.00 90 1009.6
20260510074902 18 0 0.0 0.0 0.00 0.00 0.00 90 1009.7
20260510074356 18 0 0.0 0.0 0.00 0.00 0.00 90 1009.8
20260510073849 18 0 0.0 0.0 0.00 0.00 0.00 90 1009.9
20260510073343 19 0 0.0 0.0 0.00 0.00 0.00 90 1009.9
20260510072837 19 0 0.0 0.0 0.00 0.00 0.00 90 1009.9
20260510072331 19 0 0.0 0.0 0.00 0.00 0.00 90 1009.8
20260510071825 19 0 0.0 1.6 0.00 0.00 0.00 90 1009.8
20260510071319 19 0 0.0 1.6 0.00 0.00 0.00 90 1009.8
20260510070813 19 0 0.0 1.6 0.00 0.00 0.00 90 1009.7
20260510070307 18 0 0.0 1.6 0.00 0.00 0.00 90 1009.8
20260510065802 19 0 0.0 1.6 0.00 0.00 0.00 89 1009.8
20260510065256 20 0 0.0 0.0 0.00 0.00 0.00 90 1009.9
20260510064749 20 0 0.0 3.2 0.00 0.00 0.00 90 1009.9
20260510064510 19 0 0.0 3.2 0.00 0.00 0.00 90 1009.9
20260510063245 19 0 0.0 3.2 0.00 0.00 0.00 90 1009.9
20260510062745 20 0 0.0 1.6 0.00 0.00 0.00 89 1009.9
20260510062243 20 0 0.0 1.6 0.00 0.00 0.00 90 1009.9
20260510061741 20 0 0.0 1.6 0.00 0.00 0.00 90 1009.9
20260510061240 19 0 0.0 1.6 0.00 0.00 0.00 90 1009.9
20260510061008 19 0 0.0 0.0 0.00 0.00 0.00 89 1009.9
20260510060239 19 0 0.0 0.0 0.00 0.00 0.00 89 1009.9
20260510055737 19 0 0.0 0.0 0.00 0.00 0.00 89 1009.9
20260510055236 19 0 0.0 0.0 0.00 0.00 0.00 89 1009.9
20260510054740 20 0 0.0 0.0 0.00 0.00 0.00 88 1009.9
20260510054234 20 0 0.0 0.0 0.00 0.00 0.00 88 1009.9
20260510053953 20 0 0.0 0.0 0.00 0.00 0.00 89 1009.9
20260510053231 20 0 0.0 0.0 0.00 0.00 0.00 88 1009.8
20260510052728 20 0 0.0 3.2 0.00 0.00 0.00 88 1009.7
20260510052449 20 0 0.0 3.2 0.00 0.00 0.00 88 1009.7
20260510051724 20 0 0.0 3.2 0.00 0.00 0.00 88 1009.8
20260510051443 20 0 0.0 3.2 0.00 0.00 0.00 88 1009.7
20260510050937 20 0 0.0 1.6 0.00 0.00 0.00 87 1009.7
20260510050445 20 0 0.0 0.0 0.00 0.00 0.00 87 1009.6
20260510045715 20 0 0.0 0.0 0.00 0.00 0.00 87 1009.6
20260510045209 20 0 0.0 0.0 0.00 0.00 0.00 87 1009.5
20260510044703 20 0 0.0 0.0 0.00 0.00 0.00 87 1009.5
20260510044157 20 0 0.0 0.0 0.00 0.00 0.00 87 1009.4
20260510043651 21 0 0.0 1.6 0.00 0.00 0.00 86 1009.6
20260510043145 21 0 0.0 1.6 0.00 0.00 0.00 87 1009.5
20260510042638 21 0 0.0 1.6 0.00 0.00 0.00 86 1009.5
20260510042400 21 0 0.0 0.0 0.00 0.00 0.00 86 1009.5
20260510041627 21 0 0.0 0.0 0.00 0.00 0.00 85 1009.4
20260510041121 21 0 0.0 0.0 0.00 0.00 0.00 86 1009.4
20260510040615 21 0 0.0 0.0 0.00 0.00 0.00 86 1009.3
20260510040109 21 0 0.0 0.0 0.00 0.00 0.00 85 1009.1
20260510035603 21 0 0.0 0.0 0.00 0.00 0.00 84 1009.3
20260510035321 21 0 0.0 0.0 0.00 0.00 0.00 84 1009.3
20260510034551 22 0 0.0 0.0 0.00 0.00 0.00 84 1009.1
20260510034045 22 0 0.0 0.0 0.00 0.00 0.00 84 1009.1
20260510033538 22 0 0.0 0.0 0.00 0.00 0.00 83 1009.1
20260510033035 22 0 0.0 0.0 0.00 0.00 0.00 82 1009.0
20260510032535 22 0 0.0 0.0 0.00 0.00 0.00 82 1009.0
20260510032035 22 0 0.0 0.0 0.00 0.00 0.00 82 1009.0
20260510031538 23 271 0.0 0.0 0.00 0.00 0.00 81 1008.9
20260510031256 23 271 0.0 0.0 0.00 0.00 0.00 80 1009.0
20260510030530 23 271 0.0 0.0 0.00 0.00 0.00 80 1009.0
20260510030028 23 271 0.0 3.2 0.00 0.00 0.00 79 1009.0
20260510025026 24 271 0.0 3.2 0.00 0.00 0.00 78 1008.8
20260510024526 24 271 0.0 3.2 0.00 0.00 0.00 78 1008.6
20260510024027 24 271 0.0 3.2 0.00 0.00 0.00 77 1008.5
20260510023527 24 271 0.0 3.2 0.00 0.00 0.00 77 1008.4
20260510023027 24 271 1.6 4.8 0.00 0.00 0.00 76 1008.3
20260510022522 25 271 1.6 4.8 0.00 0.00 0.00 76 1008.3
20260510022023 25 271 1.6 4.8 0.00 0.00 0.00 75 1008.3
20260510021523 25 271 1.6 4.8 0.00 0.00 0.00 74 1008.2
20260510021023 25 271 1.6 6.4 0.00 0.00 0.00 74 1008.3
20260510020523 25 271 1.6 6.4 0.00 0.00 0.00 73 1008.2
20260510020022 25 271 1.6 6.4 0.00 0.00 0.00 72 1008.2
20260510015522 26 272 1.6 6.4 0.00 0.00 0.00 71 1008.0
20260510015023 26 272 1.6 6.4 0.00 0.00 0.00 71 1007.9
20260510014748 26 272 1.6 6.4 0.00 0.00 0.00 71 1007.8
20260510014019 26 271 1.6 6.4 0.00 0.00 0.00 71 1007.6
20260510013741 26 272 1.6 6.4 0.00 0.00 0.00 71 1007.6
20260510013019 26 272 1.6 6.4 0.00 0.00 0.00 71 1007.5
20260510012518 26 272 1.6 4.8 0.00 0.00 0.00 72 1007.4
20260510012019 26 272 1.6 6.4 0.00 0.00 0.00 72 1007.4
20260510011518 26 272 1.6 6.4 0.00 0.00 0.00 72 1007.4
20260510011019 26 271 1.6 6.4 0.00 0.00 0.00 72 1007.3
20260510010519 26 272 0.0 6.4 0.00 0.00 0.00 71 1007.3
20260510010019 27 273 0.0 4.8 0.00 0.00 0.00 70 1007.2
20260510005516 27 273 0.0 4.8 0.00 0.00 0.00 69 1007.0
20260510005240 27 273 0.0 4.8 0.00 0.00 0.00 69 1007.0
20260510004517 27 273 0.0 1.6 0.00 0.00 0.00 71 1007.0
20260510004243 27 273 0.0 1.6 0.00 0.00 0.00 71 1006.8
20260510003515 27 273 0.0 1.6 0.00 0.00 0.00 70 1006.9
20260510003012 27 273 0.0 1.6 0.00 0.00 0.00 70 1006.8
20260510002510 27 273 0.0 1.6 0.00 0.00 0.00 69 1006.8
20260510002011 28 273 0.0 1.6 0.00 0.00 0.00 66 1006.7
20260510001510 28 273 0.0 4.8 0.00 0.00 0.00 65 1006.7
20260510001005 28 273 0.0 4.8 0.00 0.00 0.00 65 1006.7
20260510000503 28 273 1.6 4.8 0.00 0.00 0.00 63 1006.6
20260509235459 28 273 1.6 4.8 0.00 0.00 0.00 62 1006.8
20260509235219 28 273 1.6 4.8 0.00 0.00 0.00 61 1006.6
20260509234458 28 271 1.6 17.7 0.00 0.00 0.00 61 1006.6
20260509233957 28 270 1.6 17.7 0.00 0.00 0.00 60 1006.6
20260509233454 28 271 4.8 17.7 0.00 0.00 0.00 59 1006.5
20260509232955 29 269 4.8 17.7 0.00 0.00 0.00 57 1006.6
20260509232712 29 233 4.8 14.5 0.00 0.00 0.00 57 1006.9
20260509231450 31 36 1.6 4.8 0.00 0.00 0.00 58 1006.6
20260509230948 31 37 1.6 3.2 0.00 0.00 0.00 58 1006.5
20260509230441 31 37 1.6 3.2 0.00 0.00 0.00 58 1006.5
20260509225934 31 37 0.0 3.2 0.00 0.00 0.00 57 1006.3
20260509225429 31 37 0.0 3.2 0.00 0.00 0.00 57 1006.3
20260509224923 31 37 1.6 4.8 0.00 0.00 0.00 56 1006.5
20260509224416 31 38 1.6 6.4 0.00 0.00 0.00 54 1006.3
20260509223910 31 38 1.6 6.4 0.00 0.00 0.00 53 1006.3
20260509223404 31 38 1.6 4.8 0.00 0.00 0.00 54 1006.3
20260509222858 31 38 1.6 4.8 0.00 0.00 0.00 53 1006.3
20260509222620 31 38 1.6 4.8 0.00 0.00 0.00 53 1006.3
20260509221846 31 38 1.6 4.8 0.00 0.00 0.00 53 1006.3
20260509221340 31 38 3.2 6.4 0.00 0.00 0.00 52 1006.3
20260509220836 32 38 1.6 6.4 0.00 0.00 0.00 49 1006.3
20260509220328 32 38 1.6 4.8 0.00 0.00 0.00 50 1006.5
20260509215822 32 38 1.6 4.8 0.00 0.00 0.00 50 1006.6
20260509215316 32 38 3.2 8.0 0.00 0.00 0.00 50 1006.6
20260509214810 32 38 3.2 12.9 0.00 0.00 0.00 50 1006.6
20260509214306 33 37 1.6 12.9 0.00 0.00 0.00 49 1006.5
20260509213758 33 131 1.6 8.0 0.00 0.00 0.00 50 1006.7
20260509213253 32 132 1.6 8.0 0.00 0.00 0.00 50 1006.7
20260509212746 32 121 1.6 6.4 0.00 0.00 0.00 49 1006.7
20260509212240 32 355 1.6 6.4 0.00 0.00 0.00 50 1006.8
20260509211735 32 347 3.2 14.5 0.00 0.00 0.00 52 1006.7
20260509211455 32 347 3.2 14.5 0.00 0.00 0.00 51 1006.8
20260509210722 32 350 6.4 20.9 0.00 0.00 0.00 53 1007.0
20260509210216 31 24 6.4 20.9 0.00 0.00 0.00 53 1007.0
20260509205710 32 19 4.8 19.3 0.00 0.00 0.00 52 1007.1
20260509205430 32 32 4.8 14.5 0.00 0.00 0.00 51 1007.2
20260509204658 32 59 3.2 14.5 0.00 0.00 0.00 54 1007.1
20260509204152 32 33 4.8 14.5 0.00 0.00 0.00 54 1007.2
20260509203904 31 33 6.4 14.5 0.00 0.00 0.00 54 1007.3
20260509203141 32 28 4.8 16.1 0.00 0.00 0.00 54 1007.4
20260509202635 32 30 6.4 16.1 0.00 0.00 0.00 52 1007.4
20260509202128 32 27 4.8 14.5 0.00 0.00 0.00 55 1007.4
20260509201622 32 28 4.8 14.5 0.00 0.00 0.00 57 1007.6
20260509201116 31 34 4.8 14.5 0.00 0.00 0.00 56 1007.7
20260509200610 31 51 4.8 14.5 0.00 0.00 0.00 56 1007.8
20260509200104 32 46 4.8 14.5 0.00 0.00 0.00 56 1007.9
20260509195558 31 31 6.4 19.3 0.00 0.00 0.00 54 1008.0
20260509195052 31 25 6.4 19.3 0.00 0.00 0.00 56 1008.1
20260509194546 31 36 6.4 16.1 0.00 0.00 0.00 55 1008.1
20260509194040 31 69 6.4 16.1 0.00 0.00 0.00 55 1008.2
20260509193535 31 38 8.0 16.1 0.00 0.00 0.00 54 1008.4
20260509193029 31 30 6.4 16.1 0.00 0.00 0.00 54 1008.5
20260509192522 31 29 4.8 12.9 0.00 0.00 0.00 54 1008.4
20260509192245 31 31 3.2 9.7 0.00 0.00 0.00 58 1008.4
20260509191510 31 290 1.6 8.0 0.00 0.00 0.00 60 1008.5
20260509191006 31 5 3.2 17.7 0.00 0.00 0.00 59 1008.5
20260509190458 30 34 4.8 17.7 0.00 0.00 0.00 63 1008.7
20260509190216 29 34 6.4 17.7 0.00 0.00 0.00 63 1008.7
20260509185446 30 33 8.0 17.7 0.00 0.00 0.00 60 1008.7
20260509185200 31 28 6.4 17.7 0.00 0.00 0.00 58 1008.7
20260509184658 31 29 6.4 16.1 0.00 0.00 0.00 61 1008.8
20260509183928 30 25 4.8 16.1 0.00 0.00 0.00 62 1008.9
20260509183422 30 41 4.8 16.1 0.00 0.00 0.00 63 1008.9
20260509182916 30 42 4.8 16.1 0.00 0.00 0.00 61 1009.0
20260509182410 30 36 4.8 9.7 0.00 0.00 0.00 61 1009.1
20260509181904 29 32 4.8 12.9 0.00 0.00 0.00 65 1009.3
20260509181358 30 33 4.8 12.9 0.00 0.00 0.00 62 1009.4
20260509180853 30 26 3.2 12.9 0.00 0.00 0.00 63 1009.3
20260509180348 30 28 4.8 12.9 0.00 0.00 0.00 62 1009.4
20260509175841 30 28 4.8 12.9 0.00 0.00 0.00 63 1009.4
20260509175340 30 32 3.2 14.5 0.00 0.00 0.00 63 1009.5
20260509174839 29 32 3.2 14.5 0.00 0.00 0.00 66 1009.5
20260509174340 28 33 4.8 14.5 0.00 0.00 0.00 65 1009.6
20260509173840 28 35 4.8 14.5 0.00 0.00 0.00 67 1009.7
20260509173340 29 32 4.8 14.5 0.00 0.00 0.00 67 1009.7
20260509173059 29 31 6.4 14.5 0.00 0.00 0.00 68 1009.7
20260509172338 28 28 4.8 14.5 0.00 0.00 0.00 67 1009.8
20260509171837 28 36 3.2 14.5 0.00 0.00 0.00 70 1009.8
20260509171337 29 320 3.2 8.0 0.00 0.00 0.00 70 1009.8
20260509171103 28 304 3.2 9.7 0.00 0.00 0.00 71 1009.8
20260509170334 28 23 3.2 11.3 0.00 0.00 0.00 73 1009.8
20260509165834 27 22 3.2 11.3 0.00 0.00 0.00 73 1009.9
20260509165331 27 22 3.2 11.3 0.00 0.00 0.00 74 1009.8
20260509164832 27 12 3.2 11.3 0.00 0.00 0.00 73 1009.8
20260509164332 27 288 3.2 9.7 0.00 0.00 0.00 74 1009.9
20260509163829 27 276 1.6 9.7 0.00 0.00 0.00 74 1010.0
20260509163330 27 292 1.6 9.7 0.00 0.00 0.00 74 1010.0
20260509162555 27 40 1.6 8.0 0.00 0.00 0.00 77 1010.3
20260509162056 26 42 3.2 8.0 0.00 0.00 0.00 79 1010.3
20260509161332 26 40 3.2 8.0 0.00 0.00 0.00 82 1010.2
20260509160832 25 40 4.8 8.0 0.00 0.00 0.00 81 1010.1
20260509160332 25 40 3.2 14.5 0.00 0.00 0.00 83 1010.0
20260509155832 25 41 3.2 14.5 0.00 0.00 0.00 83 1010.0
20260509155328 25 37 3.2 14.5 0.00 0.00 0.00 84 1010.1
20260509154829 25 37 3.2 14.5 0.00 0.00 0.00 83 1010.1
20260509154329 25 46 3.2 11.3 0.00 0.00 0.00 83 1010.0
20260509153825 25 47 4.8 11.3 0.00 0.00 0.00 84 1010.1
20260509153325 25 47 4.8 11.3 0.00 0.00 0.00 85 1010.0
20260509152826 25 67 4.8 11.3 0.00 0.00 0.00 86 1009.7
20260509152326 25 184 3.2 6.4 0.00 0.00 0.00 88 1010.0
20260509151825 24 186 1.6 6.4 0.00 0.00 0.00 88 1010.3
20260509151326 24 180 1.6 4.8 0.00 0.00 0.00 89 1010.3
20260509150819 23 180 1.6 4.8 0.00 0.00 0.00 91 1010.3
20260509150319 23 180 1.6 4.8 0.00 0.00 0.00 91 1010.5
20260509145819 23 180 1.6 3.2 0.00 0.00 0.00 93 1010.6
20260509145319 22 180 0.0 3.2 0.00 0.00 0.00 94 1010.7
20260509145036 22 180 0.0 3.2 0.00 0.00 0.00 94 1010.7
20260509144544 22 180 0.0 3.2 0.00 0.00 0.00 94 1010.7
20260509143820 22 180 1.6 3.2 0.00 0.00 0.00 94 1010.7
20260509143320 22 180 0.0 3.2 0.00 0.00 0.00 94 1010.7
20260509142317 22 180 0.0 1.6 0.00 0.00 0.00 94 1010.4
20260509141817 22 180 0.0 0.0 0.00 0.00 0.00 94 1010.1
20260509141317 22 180 0.0 3.2 0.00 0.00 0.00 94 1010.2
20260509140817 22 180 0.0 3.2 0.00 0.00 0.00 94 1009.9
20260509140317 22 180 0.0 3.2 0.00 0.00 0.00 94 1009.8
20260509140037 22 180 0.0 3.2 0.00 0.00 0.00 94 1009.8
20260509135317 22 180 0.0 1.6 0.00 0.00 0.00 94 1009.9
20260509134817 22 180 0.0 1.6 0.00 0.00 0.00 94 1009.8
20260509134311 22 180 0.0 1.6 0.00 0.00 0.00 95 1009.8
20260509133806 22 180 0.0 4.8 0.00 0.00 0.00 95 1009.8
20260509133258 22 180 0.0 4.8 0.00 0.00 0.00 95 1009.8
20260509132753 22 180 0.0 6.4 0.00 0.00 0.00 95 1009.9
20260509132246 22 180 0.0 6.4 0.00 0.00 0.00 95 1010.0
20260509132005 22 0 1.6 6.4 0.00 0.00 0.00 95 1009.9
20260509131235 22 180 3.2 8.0 0.00 0.00 0.00 95 1009.8
20260509130728 22 193 3.2 8.0 0.00 0.00 0.00 95 1009.9
20260509130444 22 193 3.2 8.0 0.00 0.00 0.00 95 1009.6
20260509125717 22 193 3.2 8.0 0.00 0.00 0.00 95 1009.7
20260509125210 21 187 3.2 8.0 0.00 0.00 0.00 95 1009.7
20260509124705 22 187 3.2 8.0 0.00 0.00 0.00 95 1009.8
20260509124158 22 187 1.6 8.0 0.00 0.00 0.00 95 1009.7
20260509123653 22 186 0.0 4.8 0.00 0.00 0.00 95 1009.8
20260509123146 22 186 1.6 6.4 0.00 0.00 0.00 95 1009.9
20260509122641 22 186 1.6 6.4 0.00 0.00 0.00 95 1010.0
20260509122353 22 186 0.0 4.8 0.00 0.00 0.00 95 1009.8
20260509121628 22 186 1.6 6.4 0.00 0.00 0.00 95 1009.7
20260509121123 22 186 3.2 6.4 0.00 0.00 0.00 94 1009.7
20260509120617 22 186 3.2 14.5 0.00 0.00 0.00 94 1009.6
20260509120329 22 185 3.2 14.5 0.00 0.00 0.00 94 1009.3
20260509115605 22 185 4.8 14.5 0.00 0.00 0.00 94 1009.4
20260509115059 22 189 4.8 14.5 0.00 0.00 0.00 94 1009.6
20260509114554 22 213 4.8 11.3 0.00 0.00 0.00 94 1009.8
20260509114047 22 202 4.8 11.3 0.00 0.00 0.00 94 1009.7
20260509113540 22 186 3.2 9.7 0.00 0.00 0.00 94 1009.9
20260509113035 22 190 3.2 9.7 0.00 0.00 0.00 94 1009.9
20260509112528 22 201 3.2 9.7 0.00 0.00 0.00 94 1009.8
20260509112239 22 164 3.2 8.0 0.00 0.00 0.00 94 1009.7
20260509111517 22 161 1.6 8.0 0.00 0.00 0.00 94 1009.5
20260509111010 22 161 1.6 6.4 0.00 0.00 0.00 94 1009.4
20260509110726 22 161 0.0 3.2 0.00 0.00 0.00 94 1009.3
20260509105959 22 161 1.6 3.2 0.00 0.00 0.00 94 1009.1
20260509105453 22 161 1.6 6.4 0.00 0.00 0.00 94 1009.3
20260509104946 22 161 3.2 8.0 0.00 0.00 0.00 94 1009.1
20260509104441 22 161 3.2 8.0 0.00 0.00 0.00 94 1009.4
20260509103934 22 159 1.6 6.4 0.00 0.00 0.00 94 1009.5
20260509103429 22 159 0.0 3.2 0.00 0.00 0.00 94 1009.4
20260509102922 22 159 0.0 3.2 0.00 0.00 0.00 94 1009.3
20260509102635 22 159 1.6 3.2 0.00 0.00 0.00 94 1009.3
20260509101911 22 159 1.6 6.4 0.00 0.00 0.00 94 1009.4
20260509101625 22 159 3.2 9.7 0.00 0.00 0.00 94 1009.1
20260509100858 22 159 3.2 9.7 0.00 0.00 0.00 94 1009.1
20260509100352 22 155 3.2 9.7 0.00 0.00 0.00 94 1009.0
20260509095846 22 244 3.2 6.4 0.00 0.00 0.00 94 1008.9
20260509095602 22 253 1.6 6.4 0.00 0.00 0.00 94 1008.9
20260509094329 22 261 1.6 6.4 0.00 0.00 0.00 94 1008.5
20260509093823 22 264 1.6 4.8 0.00 0.00 0.00 94 1008.3
20260509093317 22 264 1.6 4.8 0.00 0.00 0.00 94 1008.2
20260509092306 22 264 0.0 0.0 0.00 0.00 0.00 94 1008.2
20260509091759 22 264 0.0 0.0 0.00 0.00 0.00 94 1008.3
20260509091253 22 264 0.0 0.0 0.00 0.00 0.00 94 1008.3
20260509090749 22 264 0.0 0.0 0.00 0.00 0.00 94 1008.4
20260509090242 22 264 0.0 0.0 0.00 0.00 0.00 94 1008.2
20260509085734 22 264 0.0 0.0 0.00 0.00 0.00 94 1008.3
20260509085228 22 264 0.0 0.0 0.00 0.00 0.00 94 1008.4
20260509084722 22 264 0.0 0.0 0.00 0.00 0.00 94 1008.5
20260509084216 22 264 0.0 0.0 0.00 0.00 0.00 94 1008.5
20260509083712 22 264 0.0 0.0 0.00 0.00 0.00 94 1008.5